STARLINK-3148, 49736

Orbit data source: Space-Track

STARLINK-3148, 49736 is a payload satellite owned by SpaceX/Seattle (US) in LEO that was launched on Thu, 02 Dec 2021 UTC via an FALCON 9 launch vehicle from the Air Force Eastern Test Range (AFETR). Payload-class satellites include a variety of spacecraft equipped with specific instruments for various scientific and technological missions. These include communications satellites like Starlink; space stations such as the ISS; scientific satellites like the Hubble; Earth observation satellites from companies like Planet Labs, Umbra, and HawkEye 360; GPS; miniature CubeSats for education and research; and military/defense satellites.

Loading next visibility...
Identifier
49736, 2021-115N
Orbit
LEO
Country
Flag of USUS
Related business
Manufacturer
SpaceX/Seattle
Mission
Operational Commercial Communications
Bus & Motor
STARLINK, Unknown motor
Mass
290 kg wet, ~270 kg dry
Launch date (UTC)
2021-12-02 (5 years ago)
Launch vehicle
FALCON 9
Launch site
Air Force Eastern Test Range (AFETR)
Object type
Payload
Rocket body
Debris
Shape & HBR
Box + 1 Pan, 10.1 m
Radar Cross Section
13.562 m², Large (>1 m²)

Expand to show TLE details & history
Last TLE update: 2 days ago

TLE from 2 days ago
0 STARLINK-3148
1 49736U 21115N   26170.93874073  .00001632  00000-0  12062-3 0  9992
2 49736  53.1607  49.8814 0001436  86.9934 273.1222 15.08830948250978
Epoch: 2026-06-19T22:31Z
TLE epoch observation values (Epoch: 2026-06-19T22:31:47.199Z)
Latitude
0.00002°
Longitude
163.77422°
Altitude
540.609 km
Speed
7.593 km/s
True Right ascension
03h 19m 31s
True Declination
0° 00' 00"
Sunlit
Object was in daylight at epoch
Visualization orbit readout
Latitude
Unknown
Longitude
Unknown
Altitude
Unknown
Speed
Unknown
Apparent Right ascension
Unknown
Apparent Declination
Unknown
Sunlit
N/A
Visualization observer readout
Local Sidereal Time
21:32:54
Azimuth
Unknown
Elevation
Unknown
Doppler factor
Unknown
Orbital elements
Apogee altitude
541.019 km
Perigee altitude
539.032 km
Semi-major axis
6,918.162 km
Eccentricity
0.00014
Inclination
53.1607°
RAAN
49.8814°
Arg. of periapsis
86.9934°
True anomaly
273.10577°
Mean anomaly
273.1222°
Eccentric anomaly
273.11398°
Mean motion
3.77187 °/min
Orbital period
95.44 mins
BSTAR
0.00012062
Loading maneuver chart data...
Computing Atmospheric mass density...
Loading historical data...
Loading historical data...
Loading historical data...
Loading historical data...
Loading historical data...
Loading historical data...
Loading historical data...

Documentation

Showing up to 5 results
|